www.pogodaiklimat.ru

Погода и климат >> Архив погоды >> Узбекистан >> Карши


ПОГОДА в Карши

  • Прогноз погоды в Карши
  • Монитор погоды в Карши

АРХИВ ПОГОДЫ в Карши

Время (UTC), дата Ветер
(напр.,м/с)
 
Видим.   Явления Облачность Т
(С)
Тd
(С)
f
(%)
Тe
(С)
Тes
(С)
Комфортность P
(гПа)
Po
(гПа)
Тmin
(С)
Tmax
(С)
R
(мм)
R24
(мм)
S
(см)
18 18.06 С 4 10 км ясно +27.5 +7.1 27 +27 +27 жарко 1003.7 962.1 +36.4
21 18.06 штиль 0 10 км ясно +26.5 +7.4 30 +26 +26 жарко 1004.1 961.6
00 19.06 СВ 2 10 км ясно +23.0 +8.9 41 +24 +24 комфорт 1007.8 961.0
03 19.06 С 2 10 км ясно +25.5 +9.3 36 +26 +32 жарко 1003.9 962.0
06 19.06 С 7 10 км 3/0
[Ci fib]
+34.4 +4.8 16 +32 +37 жарко 1002.1 961.3 +23.0
09 19.06 СЗ 9 10 км 4/0
[Ci fib]
+34.8 +2.7 13 +32 +33 жарко 1002.1 961.5
12 19.06 С 9 10 км 3/0
[Ci fib]
+34.1 +4.5 16 +32 +32 жарко 1002.0 961.2
15 19.06 С 4 10 км 3/0
[Ci fib]
+31.6 +6.4 21 +30 +30 жарко 1002.8 961.8 +36.5
18 19.06 С 3 10 км ясно +24.6 +7.3 33 +25 +25 комфорт 1004.1 962.1 +36.5
21 19.06 С 2 10 км ясно +20.1 +7.7 45 +22 +22 комфорт 1004.2 961.5
00 20.06 нст 1 10 км ясно +17.1 +10.7 66 +18 +18 1004.5 961.3
03 20.06 С 2 10 км ясно +22.1 +9.5 45 +24 +29 комфорт 1004.7 962.3
06 20.06 штиль 0 10 км ясно +30.4 +8.9 26 +30 +54 опасность
солнечного
удара
1003.8 962.6 +17.1
09 20.06 нст 1 10 км ясно +35.6 +6.1 16 +33 +55 опасность
солнечного
удара
1002.1 961.6
12 20.06 С 7 10 км ясно +36.0 +5.1 15 +33 +35 жарко 1001.3 960.9
15 20.06 С 5 10 км ясно +33.6 +4.0 16 +31 +31 жарко 1001.5 960.8 +37.2
18 20.06 С 3 10 км ясно +28.5 +5.1 23 +27 +27 жарко 1002.9 961.5 +37.2
21 20.06 С 1 10 км ясно +22.9 +5.1 31 +23 +23 комфорт 1003.4 961.1
00 21.06 штиль 0 10 км ясно +19.9 +8.0 46 +21 +21 комфорт 1003.9 961.2
03 21.06 СВ 2 10 км ясно +25.1 +7.3 32 +25 +31 комфорт 1004.1 962.1
06 21.06 СВ 2 10 км ясно +31.8 +9.9 26 +31 +49 жарко 1003.4 962.4 +19.9
09 21.06 СЗ 7 10 км ясно +37.7 +6.8 15 +35 +40 очень
жарко
1001.4 961.2
12 21.06 СЗ 5 10 км ясно +36.8 +1.7 11 +33 +37 жарко 1000.7 960.4
15 21.06 С 3 10 км ясно +33.0 +7.6 21 +31 +31 жарко 1001.2 960.4 +38.4
18 21.06 С 4 10 км ясно +28.2 +5.8 24 +27 +27 жарко 1002.6 961.1 +38.4
21 21.06 СВ 2 10 км ясно +29.0 +0.9 16 +27 +27 жарко 1002.2 960.8
00 22.06 СВ 3 10 км ясно +27.3 +2.1 20 +26 +26 жарко 1003.4 967.1
03 22.06 С 2 10 км ясно +27.6 +5.8 25 +27 +32 жарко 1004.6 963.0
06 22.06 С 5 10 км ясно +34.6 +4.8 16 +32 +42 жарко 1004.6 963.9 +27.3
09 22.06 С 7 10 км 4/0
[Ci fib]
+37.8 +5.6 14 +35 +40 очень
жарко
1004.0 963.7
12 22.06 С 6 10 км 4/0
[Ci fib]
+36.9 +4.3 13 +34 +36 очень
жарко
1003.7 963.3
15 22.06 С 5 10 км ясно +33.3 +3.4 15 +30 +30 жарко 1005.3 964.3 +38.4
18 22.06 С 3 10 км ясно +27.5 +5.3 24 +26 +26 жарко 1007.5 965.6 +38.4
21 22.06 СВ 2 10 км ясно +25.0 1003.8 961.5
00 23.06 СВ 3 10 км ясно +26.0 +3.1 23 +25 +25 комфорт 1003.4 964.7
03 23.06 С 4 10 км ясно +26.2 +9.0 34 +27 +30 жарко 1006.7 964.9
06 23.06 С 8 10 км ясно +34.2 +7.1 19 +32 +36 жарко 1006.8 965.9 +25.0
09 23.06 СВ 7 10 км ясно +36.0 +5.6 15 +33 +39 жарко 1004.0 965.2
12 23.06 С 4 10 км ясно +35.8 +3.2 13 +33 +37 жарко 1005.2 964.6
15 23.06 С 4 10 км ясно +32.8 +3.0 15 +30 +30 жарко 1005.7 964.7 +37.0
18 23.06 С 3 10 км ясно +27.6 +3.4 21 +26 +26 жарко 1007.0 965.1 +37.0
21 23.06 С 4 10 км ясно +27.1 +5.1 24 +26 +26 жарко 1006.5 964.7
00 24.06 нст 1 10 км ясно +22.5 +6.8 36 +23 +23 комфорт 1007.0 964.6
03 24.06 В 3 10 км ясно +24.3 +11.1 43 +26 +30 жарко 1008.4 966.2
06 24.06 С 7 10 км ясно +34.4 +10.9 24 +34 +39 очень
жарко
1007.3 966.5 +22.5
09 24.06 СВ 7 10 км ясно +36.4 +10.0 20 +35 +40 очень
жарко
1006.3 965.8
12 24.06 С 7 10 км ясно +36.6 +10.6 21 +36 +37 очень
жарко
1005.2 964.8
15 24.06 СВ 4 10 км ясно +33.0 +3.8 16 +30 +30 жарко 1007.0 965.9 +38.1
18 24.06 СВ 3 10 км ясно +28.4 +9.9 32 +29 +29 жарко 1007.5 965.9 +38.1
21 24.06 В 3 10 км ясно +24.1 +7.4 34 +24 +24 комфорт 1007.5 965.2
00 25.06 штиль 0 10 км ясно +21.5 +8.0 42 +23 +23 комфорт 1008.2 965.6
03 25.06 В 2 10 км ясно +24.7 +12.8 47 +27 +32 жарко 1008.4 966.2
06 25.06 СВ 3 10 км ясно +33.4 +12.5 28 +34 +49 очень
жарко
1007.1 966.2 +21.5
09 25.06 СЗ 6 10 км ясно +37.0 +8.9 18 +35 +43 очень
жарко
1005.9 965.4
12 25.06 СЗ 5 10 км ясно +36.8 +8.5 18 +35 +39 очень
жарко
1004.9 964.5
15 25.06 СЗ 2 10 км ясно +33.7 +8.0 20 +32 +32 жарко 1004.8 964.0 +38.7

 

Местоположение метеостанции Карши (Кашкадарьинская область, Узбекистан): широта 38.80 долгота 65.72 высота над уровнем моря 376 м.

В архиве по умолчанию представлена погода в Карши за последнюю неделю. Архивные данные за месяц целиком и за предыдущие месяцы, начиная с января 2011 года, Вы можете получить, выбрав интересующий диапазон дат из раскрывающегося списка и нажав кнопку "Ввод!".


*Определитесь, кто Вы:
робот инопланетянин человек

Внимание! Время в таблицах - всемирное. Для получения местного времени необходимо прибавить поправку, которая равна 5 ч.

Смотрите также архив погоды в соседних городах и на ближайших метеорологических станциях:

Погода в Гузаре (Кашкадарьинская область, Узбекистан) (52 км)
Погода в Дехканабаде (Сырдарьинская область, Узбекистан) (84 км)
Погода в Шахрисабзе (Кашкадарьинская область, Узбекистан) (100 км)
Погода в Нурабаде (Самаркандская область, Узбекистан) (105 км)
Погода в Минчукуре (Кашкадарьинская область, Узбекистан) (106 км)
Погода в Акрабате (Узбекистан) (114 км)
Погода в Атамурате (Лебапский велаят, Туркменистан) (117 км)
Погода на Каттакурган вдхр (Самаркандская область, Узбекистан) (122 км)
Погода в Бурдалыке (Лебапский велаят, Туркменистан) (123 км)
Погода в Самарканде (Самаркандская область, Узбекистан) (136 км)

Пояснения к столбцам:

Ветер - указаны скорость ветра в м/с - средняя за 10 мин, порывы в срок и между сроками (в фигурных скобках) и направление, откуда дует ветер: С - северный, СВ - северо-восточный, В - восточный, ЮВ - юго-восточный, Ю - южный, ЮЗ - юго-западный, З - западный, СЗ - северо-западный.
Видимость - горизонтальная дальность видимости в метрах или километрах. При видимости от 1 до 10 км при отсутствии осадков обычно наблюдается дымка, при ухудшении видимости до 1 км и менее - туман. В сухую погоду видимость может ухудшаться дымом, пылью или мглою.
Явления - указаны атмосферные явления, наблюдавшиеся в срок или в последний час перед сроком; фигурными скобками обозначены явления, наблюдавшиеся между сроками (за 1-3 часа до срока); квадратными скобками обозначены град или гололедные отложения с указанием их диаметра в мм.
Облачность - указаны через наклонную черту общая и нижняя облачность в баллах и высота нижней границы облаков в метрах; квадратными скобками обозначены формы облаков: Ci - перистые, Cs - перисто-слоистые, Cc - перисто-кучевые, Ac - высококучевые, As - высокослоистые, Sc - слоисто-кучевые, Ns - слоисто-дождевые, Cu - кучевые, Cb - кучево-дождевые. Подробнее классификацию облаков см. в Атласе облаков (PDF).
T - Температура воздуха - температура, измеренная на высоте 2 м над землей.
Td - Температура точки росы - температура, при понижении до которой содержащийся в воздухе водяной пар достигнет насыщения.
f - Относительная влажность воздуха - влажноcть воздуха, измеренная на высоте 2 м над землей.
Te - Эффективная температура - температура, которую ощущает одетый по сезону человек в тени. Характеристика душности погоды. При расчете учитывается влияние влажности воздуха и скорости ветра на теплоощущения человека.
Tes - Эффективная температура на солнце - температура, которую ощущает человек, с поправкой на солнечный нагрев. Характеристика знойности погоды. Зависит от высоты солнца над горизонтом, облачности и скорости ветра. Ночью, в пасмурную погоду, а также при ветре 12 м/с и более поправка равна нулю.
P - Атмосферное давление - приведенное к уровню моря атмосферное давление.
Po - Атмосферное давление - измеренное на уровне метеостанции атмосферное давление.
Tmin - Минимальная температура - минимум температуры воздуха на высоте 2 м над землей.
Tmax - Максимальная температура - максимум температуры воздуха на высоте 2 м над землей.
R - Количество осадков - Количество выпавших осадков за период времени, мм. При наведении курсора мыши на число - период времени, за который выпало указанное количество осадков.
R24 - Количество осадков - Количество выпавших осадков за 24 часа, мм.
S - Снежный покров - Высота снежного покрова, см. При наведении курсора мыши на число - состояние снежного покрова и степень покрытия местности в баллах.